Location: Sternwarte ZA, Rosenfeld-Brittheim
(48.2889°N, 8.6789°E)
Time: 09:58:44
(UTC+02:00)

ISS - Pass Details

Date: 18 May 2018
Orbit: 402 x 407 km, 51.6° (Epoch: 27 May)

Event Time Altitude Azimuth Distance (km) Brightness Sun altitude
Exits shadow 03:20:47 - 288° (WNW) 1,698 -0.8 -17.2°
Reaches altitude 10° 03:21:23 10° 290° (WNW) 1,459 -1.1 -17.1°
Maximum altitude 03:24:33 45° 5° (N) 557 -2.7 -16.9°
Drops below altitude 10° 03:27:43 10° 81° (E) 1,458 -0.5 -16.6°
Sets 03:29:51 0° 87° (E) 2,317 0.5 -16.4°
